�N����,����,�~����,�C��,���x,�C��,����,���ϕ���,�ő�u�ԕ���,�ő厞����,���˗�,�I�_���x,�n�����x,�ő啗���N��,DTYPE
"16/07/28","00:10",0.0,24.8,88.1,1004.3,280.5,0.3,0.8,315.0,0.00,22.7,26.3,"00:09:04",1
"16/07/28","00:20",0.0,24.8,87.6,1004.5,293.1,0.3,0.8,237.2,0.00,22.6,26.3,"00:19:44",1
"16/07/28","00:30",0.0,24.9,87.3,1004.1,271.4,0.6,1.3,239.3,0.00,22.7,26.2,"00:20:56",1
"16/07/28","00:40",0.0,24.9,87.2,1004.3,301.0,0.5,0.9,347.1,0.00,22.7,26.3,"00:30:02",1
"16/07/28","00:50",0.0,25.0,88.2,1004.3,333.0,1.0,1.6,351.6,0.00,23.0,26.2,"00:43:20",1
"16/07/28","01:00",0.0,24.8,88.1,1004.3,305.8,0.5,0.8,309.1,0.00,22.7,26.2,"00:50:24",1
"16/07/28","01:10",0.0,24.8,88.2,1004.1,288.2,0.3,0.4,273.8,0.00,22.8,26.2,"01:00:08",1
"16/07/28","01:20",0.0,24.7,88.1,1004.5,290.4,0.3,0.5,301.1,0.00,22.6,26.2,"01:10:16",1
"16/07/28","01:30",0.0,24.7,87.9,1004.5,297.4,0.3,0.6,316.4,0.00,22.6,25.9,"01:25:36",1
"16/07/28","01:40",0.0,24.8,88.0,1004.3,296.0,0.5,0.6,316.1,0.00,22.7,25.9,"01:33:36",1
"16/07/28","01:50",0.0,24.8,87.9,1004.5,302.6,0.3,0.8,335.2,0.00,22.7,26.0,"01:42:48",1
"16/07/28","02:00",0.0,24.8,88.4,1004.8,303.7,0.5,0.6,325.5,0.00,22.8,26.0,"01:50:32",1
"16/07/28","02:10",0.0,24.8,88.0,1004.5,282.4,0.3,0.8,327.8,0.00,22.7,26.2,"02:09:12",1
"16/07/28","02:20",0.0,24.9,88.0,1004.8,299.6,0.3,0.6,340.9,0.00,22.8,26.1,"02:15:44",1
"16/07/28","02:30",0.0,24.9,87.9,1005.0,291.7,0.3,0.6,313.2,0.00,22.8,26.1,"02:20:16",1
"16/07/28","02:40",0.0,24.9,87.9,1004.8,306.9,0.3,0.8,328.7,0.00,22.8,25.8,"02:38:48",1
"16/07/28","02:50",0.0,25.0,88.3,1004.5,300.9,0.5,0.9,299.4,0.00,23.0,26.0,"02:40:48",1
"16/07/28","03:00",0.0,24.9,88.7,1004.5,289.8,0.3,0.5,315.1,0.00,22.9,26.1,"02:52:08",1
"16/07/28","03:10",0.0,24.8,89.3,1004.5,298.3,0.5,0.8,324.9,0.00,23.0,26.0,"03:05:28",1
"16/07/28","03:20",0.0,24.7,89.8,1004.8,315.2,0.7,1.6,342.2,0.00,23.0,26.1,"03:11:52",1
"16/07/28","03:30",0.0,24.6,90.4,1004.3,275.9,0.5,0.9,245.3,0.00,23.0,26.0,"03:25:28",1
"16/07/28","03:40",0.0,24.5,90.7,1004.8,299.5,0.3,0.8,316.2,0.00,22.9,25.9,"03:35:28",1
"16/07/28","03:50",0.0,24.5,91.2,1005.0,282.9,0.5,1.4,240.2,0.00,23.0,26.0,"03:49:12",1
"16/07/28","04:00",0.0,24.5,91.3,1004.8,286.6,0.3,0.8,245.8,0.00,23.0,26.0,"03:50:32",1
"16/07/28","04:10",0.0,24.4,91.5,1004.5,297.4,0.3,0.5,261.6,0.00,23.0,25.7,"04:00:16",1
"16/07/28","04:20",0.0,24.4,91.6,1005.0,289.3,0.5,0.6,310.6,0.00,23.0,25.6,"04:17:52",1
"16/07/28","04:30",0.0,24.4,91.8,1005.0,301.2,0.3,0.9,350.9,0.00,23.0,26.0,"04:25:36",1
"16/07/28","04:40",0.0,24.4,92.0,1004.5,296.6,0.5,0.6,337.5,0.00,23.1,25.7,"04:30:08",1
"16/07/28","04:50",0.0,24.4,92.1,1004.8,273.1,0.3,0.9,252.9,0.00,23.1,25.8,"04:49:44",1
"16/07/28","05:00",0.0,24.4,92.2,1004.8,281.8,0.5,0.6,280.4,0.00,23.1,25.7,"04:52:32",1
"16/07/28","05:10",0.0,24.4,92.2,1005.0,289.0,0.3,0.8,336.5,0.00,23.1,25.8,"05:00:08",1
"16/07/28","05:20",0.0,24.5,92.3,1005.2,307.5,0.6,0.9,315.8,0.00,23.2,25.9,"05:11:12",1
"16/07/28","05:30",0.0,24.5,92.5,1005.0,296.3,0.5,0.9,311.7,0.00,23.2,25.8,"05:23:04",1
"16/07/28","05:40",0.0,24.5,92.6,1005.0,300.3,0.5,1.0,330.7,0.00,23.3,25.7,"05:38:16",1
"16/07/28","05:50",0.0,24.4,92.9,1005.2,305.4,0.6,1.0,330.6,0.00,23.2,25.7,"05:41:28",1
"16/07/28","06:00",0.0,24.4,92.9,1005.2,296.2,0.5,1.0,333.5,0.00,23.2,25.7,"05:59:28",1
"16/07/28","06:10",0.0,24.4,93.1,1005.2,298.6,0.6,0.9,323.4,0.00,23.3,25.6,"06:00:16",1
"16/07/28","06:20",0.0,24.4,93.3,1005.5,298.7,0.5,1.2,316.5,0.00,23.3,25.6,"06:10:08",1
"16/07/28","06:30",0.0,24.4,93.3,1005.2,280.0,0.5,0.6,280.2,0.00,23.3,25.7,"06:20:40",1
"16/07/28","06:40",0.0,24.4,93.3,1005.2,289.8,0.5,0.8,337.0,0.00,23.3,25.7,"06:31:20",1
"16/07/28","06:50",0.2,24.4,93.5,1005.2,320.0,0.6,1.7,353.0,0.00,23.3,25.7,"06:44:00",1
"16/07/28","07:00",0.0,24.5,93.6,1005.2,308.0,0.6,0.9,322.1,0.00,23.4,25.5,"06:50:16",1
"16/07/28","07:10",0.0,24.7,93.6,1005.2,312.5,0.6,1.1,329.3,0.01,23.6,25.6,"07:05:44",1
"16/07/28","07:20",0.0,24.9,93.6,1005.7,305.1,0.3,0.8,324.4,0.03,23.8,25.7,"07:14:56",1
"16/07/28","07:30",0.0,25.2,93.3,1005.5,295.3,0.3,0.6,254.2,0.06,24.1,25.7,"07:22:32",1
"16/07/28","07:40",0.0,25.4,92.1,1005.2,296.3,0.5,1.1,334.0,0.07,24.1,25.7,"07:38:32",1
"16/07/28","07:50",0.0,25.7,91.0,1006.0,344.9,0.3,1.0,348.3,0.06,24.2,25.8,"07:46:56",1
"16/07/28","08:00",0.0,26.1,90.6,1005.7,316.0,0.5,1.1,343.5,0.07,24.5,25.8,"07:55:28",1
"16/07/28","08:10",0.0,26.2,88.6,1006.0,294.6,0.3,0.8,352.1,0.07,24.2,25.8,"08:04:00",1
"16/07/28","08:20",0.0,26.3,87.7,1005.7,275.6,0.2,0.6,234.4,0.06,24.1,26.0,"08:11:28",1
"16/07/28","08:30",0.0,27.0,87.2,1005.7,224.3,0.2,0.9,231.0,0.15,24.7,25.8,"08:23:12",1
"16/07/28","08:40",0.0,28.0,80.6,1005.2,115.6,0.3,1.0,146.2,0.29,24.4,25.8,"08:39:44",1
"16/07/28","08:50",0.0,28.6,78.5,1004.8,133.2,0.5,1.4,202.2,0.32,24.5,26.2,"08:41:20",1
"16/07/28","09:00",0.0,27.8,80.2,1005.2,357.8,1.1,2.6,343.5,0.19,24.1,26.4,"08:51:20",1
"16/07/28","09:10",0.0,27.9,79.7,1005.0,118.8,0.6,1.3,32.2,0.10,24.1,26.4,"09:02:00",1
"16/07/28","09:20",0.0,27.9,81.3,1004.8,136.3,0.6,1.4,103.2,0.07,24.4,26.5,"09:12:32",1
"16/07/28","09:30",0.0,28.0,81.1,1004.8,57.3,0.5,1.4,352.3,0.13,24.5,26.6,"09:28:08",1
"16/07/28","09:40",0.0,28.1,78.4,1004.8,37.7,0.7,1.6,21.4,0.13,24.0,26.7,"09:30:32",1
"16/07/28","09:50",0.0,27.9,77.8,1004.8,202.4,0.8,1.9,230.2,0.10,23.7,26.7,"09:47:44",1
"16/07/28","10:00",0.0,28.3,78.9,1005.0,344.4,0.5,1.8,349.7,0.10,24.3,26.7,"09:54:16",1
"16/07/28","10:10",0.0,28.4,79.5,1004.5,316.7,0.1,0.9,353.8,0.10,24.5,26.7,"10:00:08",1
"16/07/28","10:20",0.0,28.5,76.2,1004.8,352.1,0.6,1.6,358.4,0.11,23.9,27.0,"10:16:08",1
"16/07/28","10:30",0.0,30.2,74.4,1005.0,38.6,0.2,0.9,36.8,0.36,25.2,27.1,"10:23:12",1
"16/07/28","10:40",0.0,30.6,71.7,1005.5,9.0,0.7,2.1,8.0,0.40,24.9,27.0,"10:34:24",1
"16/07/28","10:50",0.0,30.7,67.7,1006.0,70.7,0.7,2.1,73.7,0.39,24.1,27.2,"10:43:20",1
"16/07/28","11:00",0.0,30.1,70.6,1006.0,70.8,0.8,1.8,77.0,0.18,24.2,27.5,"10:58:56",1
"16/07/28","11:10",0.0,30.9,70.5,1006.0,69.4,0.5,1.2,113.7,0.28,24.9,27.5,"11:03:20",1
"16/07/28","11:20",0.0,31.8,63.6,1006.4,13.1,1.0,2.0,15.0,0.56,24.1,27.6,"11:15:04",1
"16/07/28","11:30",0.0,30.7,66.4,1006.0,23.9,1.0,2.2,11.4,0.19,23.8,27.9,"11:20:56",1
"16/07/28","11:40",0.0,30.3,68.9,1006.0,4.6,1.0,2.0,17.0,0.13,24.0,28.0,"11:35:20",1
"16/07/28","11:50",0.0,30.8,67.8,1005.7,82.4,0.7,1.3,107.6,0.21,24.2,28.2,"11:47:20",1
"16/07/28","12:00",0.0,30.4,67.9,1005.5,31.1,1.0,2.1,8.3,0.12,23.8,27.9,"11:55:04",1
"16/07/28","12:10",0.0,30.4,68.2,1005.2,34.6,0.6,1.8,32.3,0.11,23.9,28.1,"12:08:40",1
"16/07/28","12:20",0.0,30.2,70.5,1005.0,13.8,1.0,2.1,17.8,0.09,24.3,28.2,"12:18:08",1
"16/07/28","12:30",0.0,30.4,71.2,1004.8,43.7,1.0,2.2,106.9,0.11,24.6,28.2,"12:26:40",1
"16/07/28","12:40",0.0,31.8,68.2,1004.5,57.2,1.0,4.9,3.5,0.36,25.2,28.1,"12:36:40",1
"16/07/28","12:50",0.0,31.0,65.7,1004.8,62.1,1.1,2.4,75.7,0.17,23.9,28.3,"12:48:32",1
"16/07/28","13:00",0.0,30.4,67.8,1004.8,91.8,0.7,2.0,74.6,0.06,23.8,28.1,"12:52:56",1
"16/07/28","13:10",0.0,30.5,68.7,1004.5,82.5,0.5,1.6,14.7,0.07,24.1,28.2,"13:02:32",1
"16/07/28","13:20",0.0,30.6,69.2,1004.5,21.8,0.6,1.6,8.7,0.11,24.3,28.3,"13:11:28",1
"16/07/28","13:30",0.0,31.6,64.9,1004.8,21.7,0.8,2.0,12.7,0.29,24.2,28.2,"13:25:44",1
"16/07/28","13:40",0.0,31.2,66.5,1004.5,33.4,1.0,2.1,3.8,0.16,24.3,28.2,"13:30:32",1
"16/07/28","13:50",0.0,31.5,64.8,1004.5,28.7,0.7,1.7,19.3,0.17,24.1,28.3,"13:44:56",1
"16/07/28","14:00",0.0,32.1,63.4,1004.8,34.5,0.7,1.9,42.7,0.28,24.3,28.2,"13:55:12",1
"16/07/28","14:10",0.0,33.6,62.3,1005.0,49.8,1.1,2.6,3.0,0.55,25.4,28.4,"14:06:00",1
"16/07/28","14:20",0.0,33.3,61.0,1005.7,64.7,0.7,2.0,90.8,0.47,24.8,28.6,"14:15:52",1
"16/07/28","14:30",0.0,33.6,60.7,1005.5,12.6,1.1,2.1,6.7,0.46,25.0,28.7,"14:24:24",1
"16/07/28","14:40",0.0,32.5,60.0,1005.7,80.5,0.8,1.9,47.6,0.30,23.8,28.9,"14:33:12",1
"16/07/28","14:50",0.0,32.2,63.6,1005.5,118.9,0.7,1.4,108.6,0.24,24.5,29.0,"14:46:40",1
"16/07/28","15:00",0.0,32.2,62.7,1005.2,118.9,1.0,2.0,92.8,0.25,24.2,29.2,"14:55:28",1
"16/07/28","15:10",0.0,33.0,61.8,1005.0,89.5,1.2,2.7,5.7,0.36,24.7,29.0,"15:01:28",1
"16/07/28","15:20",0.0,33.3,62.8,1005.2,100.4,1.1,2.6,119.5,0.45,25.3,29.2,"15:10:16",1
"16/07/28","15:30",0.0,32.0,63.0,1005.5,93.5,1.1,3.1,73.7,0.30,24.1,29.2,"15:26:16",1
"16/07/28","15:40",0.0,32.7,62.7,1005.2,95.6,1.1,2.6,98.1,0.34,24.7,29.3,"15:34:16",1
"16/07/28","15:50",0.0,32.3,62.6,1004.8,77.8,0.8,2.4,16.7,0.23,24.3,29.3,"15:46:00",1
"16/07/28","16:00",0.0,32.1,63.3,1004.8,68.8,0.8,1.9,85.3,0.25,24.3,29.4,"15:51:28",1
"16/07/28","16:10",0.0,32.1,63.7,1004.5,79.7,0.6,2.5,47.8,0.19,24.4,29.4,"16:03:12",1
"16/07/28","16:20",0.0,32.2,63.7,1005.0,98.9,0.7,1.9,183.1,0.18,24.5,29.4,"16:15:04",1
"16/07/28","16:30",0.0,31.6,62.2,1004.3,92.8,0.7,2.4,62.5,0.06,23.5,29.3,"16:25:44",1
"16/07/28","16:40",0.0,31.1,63.5,1004.1,104.4,1.0,2.0,91.9,0.03,23.4,29.2,"16:31:20",1
"16/07/28","16:50",0.0,30.8,64.9,1003.8,97.9,0.8,2.4,58.8,0.02,23.5,29.2,"16:43:52",1
"16/07/28","17:00",0.0,30.7,65.6,1003.8,86.3,1.0,2.0,41.8,0.01,23.6,29.1,"16:50:08",1
"16/07/28","17:10",0.0,30.1,70.0,1003.8,154.3,1.2,3.5,141.0,0.02,24.1,29.1,"17:04:16",1
"16/07/28","17:20",0.0,29.8,71.0,1003.6,107.8,0.7,2.0,123.7,0.03,24.0,28.8,"17:19:44",1
"16/07/28","17:30",0.0,29.9,70.8,1003.6,155.1,1.0,2.5,187.2,0.04,24.1,28.9,"17:28:32",1
"16/07/28","17:40",0.0,29.8,70.4,1003.4,199.5,1.6,3.7,210.5,0.03,23.9,28.9,"17:34:24",1
"16/07/28","17:50",0.0,29.6,70.6,1003.1,208.7,1.8,3.6,232.4,0.01,23.7,28.8,"17:42:16",1
"16/07/28","18:00",0.0,29.3,70.0,1003.4,167.2,1.2,2.5,149.9,0.00,23.3,28.8,"17:58:08",1
"16/07/28","18:10",0.0,28.8,69.6,1003.4,202.4,2.2,4.2,221.2,0.00,22.7,28.6,"18:01:44",1
"16/07/28","18:20",0.0,28.1,73.4,1004.1,231.2,2.0,5.7,225.0,0.00,22.9,28.6,"18:10:24",1
"16/07/28","18:30",0.0,27.5,77.3,1003.8,295.3,0.7,3.4,226.2,0.00,23.2,28.3,"18:23:04",1
"16/07/28","18:40",0.2,26.8,80.0,1004.1,340.8,1.1,3.3,351.5,0.00,23.1,28.3,"18:34:32",1
"16/07/28","18:50",0.0,26.4,82.1,1004.3,320.5,1.0,2.5,9.7,0.00,23.1,28.2,"18:48:08",1
"16/07/28","19:00",0.0,26.3,82.5,1004.5,309.7,1.0,2.5,331.4,0.00,23.1,28.3,"18:58:16",1
"16/07/28","19:10",0.0,26.5,83.3,1004.8,322.4,0.7,1.8,13.5,0.00,23.5,28.1,"19:06:16",1
"16/07/28","19:20",0.0,26.1,84.1,1004.5,323.3,0.8,2.2,356.5,0.00,23.2,27.7,"19:14:56",1
"16/07/28","19:30",0.0,26.0,85.4,1005.0,270.7,0.5,1.2,226.8,0.00,23.4,27.9,"19:20:02",1
"16/07/28","19:40",0.0,25.7,86.9,1004.8,266.7,0.6,1.4,231.2,0.00,23.4,27.7,"19:30:40",1
"16/07/28","19:50",0.0,25.6,87.7,1005.2,282.5,0.3,1.2,226.8,0.00,23.4,27.6,"19:48:40",1
"16/07/28","20:00",0.0,25.6,88.3,1005.2,260.4,0.5,1.2,241.5,0.00,23.6,27.7,"19:51:12",1
"16/07/28","20:10",0.0,25.6,88.4,1005.5,272.0,0.5,1.9,229.1,0.00,23.6,27.6,"20:03:20",1
"16/07/28","20:20",0.0,25.6,88.8,1005.7,294.7,0.3,1.2,214.2,0.00,23.7,27.5,"20:16:08",1
"16/07/28","20:30",0.0,25.6,88.9,1006.2,291.7,0.5,1.0,235.7,0.00,23.7,27.5,"20:29:28",1
"16/07/28","20:40",0.0,25.6,88.9,1005.7,282.7,0.3,0.8,277.7,0.00,23.7,27.3,"20:30:48",1
"16/07/28","20:50",0.0,25.6,89.0,1006.0,301.1,0.3,0.8,266.8,0.00,23.7,27.3,"20:44:32",1
"16/07/28","21:00",0.0,25.6,89.4,1006.2,291.6,0.5,0.9,251.9,0.00,23.8,27.2,"20:53:28",1
"16/07/28","21:10",0.0,25.5,89.6,1006.4,275.2,0.5,1.1,272.7,0.00,23.7,27.6,"21:03:20",1
"16/07/28","21:20",0.0,25.5,89.8,1006.2,280.1,0.6,1.4,236.2,0.00,23.7,27.1,"21:18:08",1
"16/07/28","21:30",0.0,25.5,89.8,1006.2,305.8,0.3,0.9,14.1,0.00,23.7,27.2,"21:26:56",1
"16/07/28","21:40",0.0,25.5,90.0,1006.2,284.9,0.3,0.8,247.4,0.00,23.8,27.0,"21:32:00",1
"16/07/28","21:50",0.0,25.5,89.9,1006.4,307.7,0.5,1.0,352.8,0.00,23.8,27.2,"21:47:12",1
"16/07/28","22:00",0.0,25.4,90.0,1006.2,298.4,0.3,0.9,251.2,0.00,23.7,27.1,"21:50:08",1
"16/07/28","22:10",0.0,25.4,90.3,1006.4,310.4,0.3,0.6,341.2,0.00,23.7,26.9,"22:02:56",1
"16/07/28","22:20",0.0,25.3,90.5,1006.7,289.6,0.3,0.6,279.7,0.00,23.7,27.0,"22:11:44",1
"16/07/28","22:30",0.0,25.3,90.7,1006.4,286.5,0.3,1.0,252.7,0.00,23.7,27.0,"22:27:20",1
"16/07/28","22:40",0.0,25.1,90.7,1006.4,291.2,0.3,0.9,346.9,0.00,23.5,27.0,"22:33:44",1
"16/07/28","22:50",0.0,25.0,90.8,1006.7,299.1,0.3,0.5,297.9,0.00,23.4,26.7,"22:41:44",1
"16/07/28","23:00",0.0,24.8,91.0,1007.1,298.2,0.5,0.8,305.6,0.00,23.3,26.6,"22:59:28",1
"16/07/28","23:10",0.0,24.6,91.5,1006.7,281.5,0.6,1.0,249.8,0.00,23.2,26.8,"23:07:44",1
"16/07/28","23:20",0.0,24.6,91.5,1006.4,267.3,0.6,1.4,233.5,0.00,23.2,26.5,"23:11:36",1
"16/07/28","23:30",0.0,24.4,91.5,1006.4,279.0,0.6,1.1,254.9,0.00,23.0,26.6,"23:28:16",1
"16/07/28","23:40",0.0,24.3,91.7,1006.7,310.4,0.5,0.9,318.3,0.00,22.9,26.5,"23:37:36",1
"16/07/28","23:50",0.0,24.3,92.0,1006.7,294.5,0.6,0.8,308.9,0.00,23.0,26.6,"23:43:12",1
"16/07/28","24:00",0.0,24.1,92.1,1006.4,296.1,0.5,0.9,328.3,0.00,22.8,26.5,"23:59:04",1
